Location: Unspecified
(0.0000°N, 0.0000°E)
Time: 00:07:21
(UTC+00:00)

Tiangong - Visible Passes

Search period start: 09 October 2024 00:00
Search period end: 19 October 2024 00:00
Orbit: 373 x 377 km, 41.5° (Epoch: 08 October)

Date Brightness Start Highest point End Pass type
(mag) Time Alt. Az. Time Alt. Az. Time Alt. Az.
09 Oct 0.9 04:57:10 10° S 04:58:54 14° SE 05:00:38 10° ESE visible
11 Oct -0.3 04:28:04 18° S 04:29:46 30° SE 04:32:32 10° ENE visible
12 Oct -1.3 05:01:29 17° W 05:03:13 30° NW 05:05:59 10° NNE visible
13 Oct 0.7 04:02:37 14° NE 04:02:37 14° NE 04:03:10 10° NE visible
